Weather in Berezka

Russia / Vladimir Oblast     55°58′44″N   39°26′57″E
temp.,
°C
wind,
m/s
gust,
m/s
humid.,
%
clouds,
%
prec.,
mm/h
press.,
hPa
HPBL,
m
3 march, wed
wed300:00−3nw3119585 0.1 1009490
03:00−5nnw4128863 0.2 1011458
06:00−7nw513900 0.0 1013492
09:00−5nw5128641 0.0 1014836
12:00−2nw598333 0.0 1013956
15:00−1w488967 0.1 1013771
18:00−1w41091100 0.2 1011781
21:00−1w5119499 0.4 1009810
4 march, thu
thu400:00−2wsw51192100 0.2 1005768
03:00−1wsw61397100 1.2 1002898
06:00+1w71397100 1.7 9991080
09:00+1w61297100 2.6 9991101
12:000wnw6116799 0.6 9991361
15:000wnw4775100 0.6 10001042
18:00−3nw2389100 0.0 100063
21:00−5nnw1293100 0.0 100133
5 march, fri
fri500:00−7nnw2293100 0.0 100135
03:00−10nnw239578 0.0 100337
06:00−11nnw22950 0.0 100421
09:00−8wnw11910 0.0 1006119
12:00−4wsw128258 0.0 1006513
15:00−3w129179 0.6 1008313
18:00−6nw3887100 0.8 1009256
21:00−9wnw269587 0.8 1011155
6 march, sat
sat600:00−11wnw239652 0.0 101378
03:00−12wnw239532 0.0 101454
06:00−13nnw269673 0.1 1015150
09:00−13nnw368645 0.1 1016311
12:00−9nnw36750 0.0 1016891
15:00−8nw367550 0.1 10161143
18:00−10w2489100 0.1 1015111
21:00−12wsw379175 0.1 1015136
7 march, sun
sun700:00−13sw399118 0.0 1012241
03:00−12ssw4129222 0.0 1009364
06:00−9sw61492100 0.4 1003941
09:00−6sw81592100 1.8 9981128
12:00−3sw71392100 1.4 9941142
15:00−5wnw41387100 3.9 9931106
18:00−8sse238267 0.1 99338
21:00−7w5128067 0.5 994969